Location: Cazarilh
(42.9578°N, 0.5819°E)
Time: 17:07:25
(UTC+00:00)

GEOS 3 Rocket - Pass Details

Date: 11 December 2019
Orbit: 783 x 837 km, 115.0° (Epoch: 20 January)

Event Time Altitude Azimuth Distance (km) Brightness Sun altitude
Rises 04:56:38 0° 140° (SE) 3,259 7.5 -25.0°
Reaches altitude 10° 04:58:53 10° 140° (SE) 2,337 6.6 -24.6°
Maximum altitude 05:03:57 86° 53° (NE) 797 3.5 -23.7°
Enters shadow 05:05:25 49° 327° (NNW) 1,021 3.8 -23.5°
